KRH757 CYHZ-CYYT

Flight info

Callsign KRH757
Flight time 1h 11m
Altitude 39000
Route IGTAS DCT NOTOP DCT SILRO DCT TIGOR TIGOR5
Aircraft B77L/H-SDE1E2E3FGHIJ2J3J4J5M1RWXY/LB1D1

Departure

Time 2026-04-28 00:32
Airport Halifax / Stanfield International Airport (CYHZ)

Arrival

Time 2026-04-28 01:43
Airport St. John's International Airport (CYYT)
Time Latitude Longitude Altitude Speed Heading
2026-04-28 00:01 44.86858 -63.53452 457 ft 0 kts 235°
2026-04-28 00:12 44.86861 -63.53446 457 ft 0 kts 58°
2026-04-28 00:17 44.86863 -63.53442 457 ft 0 kts 58°
2026-04-28 00:18 44.86881 -63.53404 457 ft 17 kts 56°
2026-04-28 00:18 44.86868 -63.53280 457 ft 13 kts 119°
2026-04-28 00:18 44.86813 -63.53166 457 ft 4 kts 137°
2026-04-28 00:19 44.86788 -63.53133 457 ft 5 kts 135°
2026-04-28 00:19 44.86772 -63.53110 457 ft 1 kts 135°
2026-04-28 00:19 44.86764 -63.53098 457 ft 2 kts 132°
2026-04-28 00:19 44.86762 -63.53094 457 ft 0 kts 131°
2026-04-28 00:20 44.86760 -63.53092 457 ft 1 kts 131°
2026-04-28 00:20 44.86736 -63.53039 456 ft 12 kts 109°
2026-04-28 00:21 44.86783 -63.52885 456 ft 21 kts 48°
2026-04-28 00:21 44.86886 -63.52741 456 ft 21 kts 39°
2026-04-28 00:21 44.87006 -63.52618 456 ft 21 kts 34°
2026-04-28 00:21 44.87128 -63.52501 457 ft 20 kts 34°
2026-04-28 00:22 44.87242 -63.52388 456 ft 18 kts 35°
2026-04-28 00:22 44.87344 -63.52287 456 ft 18 kts 35°
2026-04-28 00:22 44.87449 -63.52185 454 ft 19 kts 34°
2026-04-28 00:22 44.87555 -63.52078 456 ft 19 kts 36°
2026-04-28 00:23 44.87661 -63.51973 456 ft 19 kts 34°
2026-04-28 00:23 44.87768 -63.51868 455 ft 19 kts 35°
2026-04-28 00:23 44.87873 -63.51770 456 ft 17 kts 34°
2026-04-28 00:23 44.87967 -63.51673 456 ft 17 kts 35°
2026-04-28 00:24 44.88062 -63.51577 456 ft 17 kts 36°
2026-04-28 00:24 44.88159 -63.51481 455 ft 17 kts 35°
2026-04-28 00:24 44.88260 -63.51381 456 ft 18 kts 34°
2026-04-28 00:24 44.88360 -63.51278 456 ft 18 kts 38°
2026-04-28 00:25 44.88469 -63.51211 456 ft 18 kts 360°
2026-04-28 00:25 44.88590 -63.51236 456 ft 18 kts 350°
2026-04-28 00:25 44.88711 -63.51266 456 ft 18 kts 350°
2026-04-28 00:25 44.88832 -63.51295 456 ft 18 kts 350°
2026-04-28 00:26 44.88904 -63.51328 456 ft 8 kts 325°
2026-04-28 00:26 44.88963 -63.51341 456 ft 9 kts 349°
2026-04-28 00:26 44.89011 -63.51402 456 ft 10 kts 308°
2026-04-28 00:26 44.89064 -63.51502 456 ft 15 kts 305°
2026-04-28 00:27 44.89130 -63.51635 456 ft 15 kts 305°
2026-04-28 00:27 44.89183 -63.51743 456 ft 12 kts 304°
2026-04-28 00:27 44.89226 -63.51822 456 ft 8 kts 318°
2026-04-28 00:27 44.89272 -63.51834 456 ft 0 kts 16°
2026-04-28 00:29 44.89274 -63.51833 456 ft 4 kts 16°
2026-04-28 00:29 44.89337 -63.51785 457 ft 7 kts 33°
2026-04-28 00:29 44.89363 -63.51732 457 ft 8 kts 102°
2026-04-28 00:30 44.89356 -63.51713 457 ft 0 kts 117°
2026-04-28 00:31 44.89336 -63.51659 457 ft 36 kts 118°
2026-04-28 00:31 44.88989 -63.50961 453 ft 134 kts 126°
2026-04-28 00:31 44.88354 -63.49654 755 ft 185 kts 124°
2026-04-28 00:32 44.87534 -63.47922 1248 ft 207 kts 126°
2026-04-28 00:32 44.86766 -63.46456 3182 ft 172 kts 126°
2026-04-28 00:32 44.86028 -63.45061 4242 ft 185 kts 125°
2026-04-28 00:32 44.85222 -63.43519 4886 ft 210 kts 126°
2026-04-28 00:33 44.84254 -63.41691 5041 ft 253 kts 126°
2026-04-28 00:33 44.83185 -63.39667 5058 ft 258 kts 124°
2026-04-28 00:33 44.82495 -63.37383 5630 ft 259 kts 92°
2026-04-28 00:33 44.82903 -63.34919 6791 ft 264 kts 58°
2026-04-28 00:34 44.84038 -63.32876 7858 ft 269 kts 48°
2026-04-28 00:34 44.85283 -63.30865 8986 ft 274 kts 47°
2026-04-28 00:34 44.86547 -63.28832 10215 ft 278 kts 47°
2026-04-28 00:34 44.87864 -63.26724 11003 ft 299 kts 47°
2026-04-28 00:35 44.89315 -63.24405 11329 ft 333 kts 47°
2026-04-28 00:35 44.90912 -63.21846 11959 ft 355 kts 47°
2026-04-28 00:35 44.92547 -63.19215 13164 ft 356 kts 48°
2026-04-28 00:35 44.94157 -63.16616 14768 ft 346 kts 48°
2026-04-28 00:36 44.95711 -63.14103 16312 ft 333 kts 48°
2026-04-28 00:36 44.97206 -63.11683 17820 ft 322 kts 49°
2026-04-28 00:36 44.98654 -63.09338 19144 ft 312 kts 49°
2026-04-28 00:36 45.00068 -63.07046 20174 ft 309 kts 49°
2026-04-28 00:37 45.01490 -63.04738 20988 ft 313 kts 49°
2026-04-28 00:37 45.02918 -63.02421 21702 ft 320 kts 49°
2026-04-28 00:37 45.04409 -62.99998 22456 ft 325 kts 49°
2026-04-28 00:37 45.05886 -62.97594 23194 ft 331 kts 49°
2026-04-28 00:38 45.07399 -62.95100 23938 ft 337 kts 52°
2026-04-28 00:38 45.08729 -62.92339 24578 ft 341 kts 60°
2026-04-28 00:38 45.09927 -62.89420 25242 ft 346 kts 62°
2026-04-28 00:38 45.11115 -62.86438 25895 ft 350 kts 62°
2026-04-28 00:39 45.12320 -62.83406 26534 ft 356 kts 62°
2026-04-28 00:39 45.13549 -62.80330 27190 ft 361 kts 62°
2026-04-28 00:39 45.14799 -62.77219 27857 ft 366 kts 62°
2026-04-28 00:39 45.16067 -62.74076 28525 ft 370 kts 62°
2026-04-28 00:40 45.17359 -62.70882 29169 ft 375 kts 62°
2026-04-28 00:40 45.18666 -62.67653 29448 ft 381 kts 62°
2026-04-28 00:40 45.19992 -62.64380 29560 ft 384 kts 62°
2026-04-28 00:40 45.21326 -62.61084 30234 ft 387 kts 62°
2026-04-28 00:41 45.22669 -62.57765 30906 ft 389 kts 62°
2026-04-28 00:41 45.24018 -62.54427 31504 ft 392 kts 62°
2026-04-28 00:41 45.25381 -62.51048 32004 ft 397 kts 62°
2026-04-28 00:41 45.26763 -62.47617 32494 ft 402 kts 62°
2026-04-28 00:42 45.28156 -62.44157 33041 ft 405 kts 62°
2026-04-28 00:42 45.29551 -62.40660 33576 ft 408 kts 64°
2026-04-28 00:42 45.30774 -62.37015 34089 ft 410 kts 69°
2026-04-28 00:42 45.31907 -62.33271 34558 ft 414 kts 70°
2026-04-28 00:43 45.33030 -62.29490 34987 ft 417 kts 69°
2026-04-28 00:43 45.34169 -62.25699 35451 ft 418 kts 69°
2026-04-28 00:43 45.35320 -62.21884 35830 ft 422 kts 69°
2026-04-28 00:43 45.36478 -62.18040 36209 ft 425 kts 69°
2026-04-28 00:44 45.37644 -62.14163 36613 ft 427 kts 69°
2026-04-28 00:44 45.38813 -62.10264 37024 ft 429 kts 68°
2026-04-28 00:44 45.39984 -62.06351 37443 ft 431 kts 68°
2026-04-28 00:44 45.41161 -62.02409 37836 ft 433 kts 68°
2026-04-28 00:45 45.42342 -61.98447 38201 ft 436 kts 68°
2026-04-28 00:45 45.43527 -61.94461 38544 ft 439 kts 68°
2026-04-28 00:45 45.44719 -61.90447 38901 ft 441 kts 68°
2026-04-28 00:45 45.45916 -61.86408 39203 ft 444 kts 68°
2026-04-28 00:46 45.47123 -61.82332 39339 ft 450 kts 68°
2026-04-28 00:46 45.49578 -61.74014 39421 ft 462 kts 68°
2026-04-28 00:47 45.52101 -61.65439 39434 ft 477 kts 68°
2026-04-28 00:47 45.54702 -61.56570 39420 ft 492 kts 68°
2026-04-28 00:48 45.57375 -61.47420 39428 ft 506 kts 68°
2026-04-28 00:48 45.60104 -61.38044 39424 ft 517 kts 68°
2026-04-28 00:49 45.62880 -61.28468 39422 ft 526 kts 68°
2026-04-28 00:49 45.65676 -61.18790 39425 ft 533 kts 68°
2026-04-28 00:50 45.68498 -61.08981 39410 ft 534 kts 68°
2026-04-28 00:50 45.71336 -60.99076 39409 ft 534 kts 69°
2026-04-28 00:51 45.74126 -60.89300 39408 ft 534 kts 69°
2026-04-28 00:51 45.76923 -60.79460 39414 ft 533 kts 69°
2026-04-28 00:52 45.79710 -60.69614 39414 ft 533 kts 69°
2026-04-28 00:52 45.82482 -60.59784 39420 ft 532 kts 69°
2026-04-28 00:53 45.85246 -60.49941 39417 ft 532 kts 69°
2026-04-28 00:53 45.87998 -60.40102 39418 ft 531 kts 69°
2026-04-28 00:54 45.90739 -60.30262 39418 ft 531 kts 69°
2026-04-28 00:54 45.93474 -60.20402 39417 ft 531 kts 69°
2026-04-28 00:55 45.96203 -60.10524 39424 ft 532 kts 69°
2026-04-28 00:55 45.98928 -60.00618 39425 ft 533 kts 69°
2026-04-28 00:56 46.01648 -59.90691 39427 ft 534 kts 69°
2026-04-28 00:56 46.04363 -59.80742 39430 ft 534 kts 70°
2026-04-28 00:57 46.07069 -59.70787 39434 ft 534 kts 69°
2026-04-28 00:57 46.09771 -59.60803 39421 ft 535 kts 70°
2026-04-28 00:58 46.12462 -59.50816 39435 ft 535 kts 70°
2026-04-28 00:58 46.15147 -59.40808 39440 ft 535 kts 70°
2026-04-28 00:59 46.17823 -59.30792 39439 ft 536 kts 70°
2026-04-28 00:59 46.20495 -59.20748 39448 ft 536 kts 70°
2026-04-28 01:00 46.23157 -59.10701 39450 ft 536 kts 70°
2026-04-28 01:00 46.25793 -59.00709 39453 ft 536 kts 70°
2026-04-28 01:01 46.28439 -58.90634 39449 ft 536 kts 70°
2026-04-28 01:01 46.31077 -58.80552 39457 ft 536 kts 70°
2026-04-28 01:02 46.33707 -58.70451 39453 ft 537 kts 70°
2026-04-28 01:02 46.36329 -58.60338 39456 ft 537 kts 70°
2026-04-28 01:03 46.38941 -58.50218 39459 ft 537 kts 70°
2026-04-28 01:03 46.41548 -58.40077 39455 ft 537 kts 70°
2026-04-28 01:04 46.43706 -58.31647 39456 ft 537 kts 70°
2026-04-28 01:04 46.46295 -58.21492 39446 ft 537 kts 70°
2026-04-28 01:05 46.48874 -58.11332 39456 ft 537 kts 70°
2026-04-28 01:05 46.51445 -58.01158 39456 ft 537 kts 70°
2026-04-28 01:06 46.54009 -57.90966 39456 ft 537 kts 70°
2026-04-28 01:06 46.56564 -57.80767 39459 ft 537 kts 71°
2026-04-28 01:07 46.59110 -57.70554 39469 ft 537 kts 70°
2026-04-28 01:07 46.61647 -57.60331 39458 ft 537 kts 70°
2026-04-28 01:08 46.64173 -57.50109 39451 ft 536 kts 70°
2026-04-28 01:08 46.66687 -57.39890 39460 ft 536 kts 70°
2026-04-28 01:09 46.69191 -57.29662 39462 ft 536 kts 70°
2026-04-28 01:09 46.71684 -57.19433 39461 ft 535 kts 70°
2026-04-28 01:10 46.74164 -57.09213 39456 ft 534 kts 70°
2026-04-28 01:10 46.76630 -56.98999 39461 ft 534 kts 71°
2026-04-28 01:11 46.79084 -56.88790 39460 ft 533 kts 71°
2026-04-28 01:11 46.81523 -56.78598 39459 ft 531 kts 70°
2026-04-28 01:12 46.83946 -56.68427 39457 ft 529 kts 71°
2026-04-28 01:12 46.86352 -56.58279 39456 ft 528 kts 71°
2026-04-28 01:13 46.88727 -56.48214 39455 ft 527 kts 71°
2026-04-28 01:13 46.92291 -56.33025 39461 ft 526 kts 71°
2026-04-28 01:14 46.94650 -56.22910 39457 ft 525 kts 71°
2026-04-28 01:14 46.96998 -56.12797 39452 ft 525 kts 71°
2026-04-28 01:15 46.99339 -56.02670 39457 ft 524 kts 71°
2026-04-28 01:15 47.01649 -55.92627 39447 ft 510 kts 71°
2026-04-28 01:16 47.02762 -55.87773 39337 ft 497 kts 71°
2026-04-28 01:16 47.03854 -55.82998 38874 ft 492 kts 71°
2026-04-28 01:16 47.04941 -55.78237 38040 ft 494 kts 72°
2026-04-28 01:16 47.06028 -55.73461 37310 ft 494 kts 72°
2026-04-28 01:17 47.07111 -55.68694 36779 ft 489 kts 72°
2026-04-28 01:17 47.08177 -55.63989 36337 ft 483 kts 72°
2026-04-28 01:17 47.09229 -55.59340 35911 ft 478 kts 72°
2026-04-28 01:17 47.10270 -55.54729 35471 ft 474 kts 72°
2026-04-28 01:18 47.11299 -55.50161 34993 ft 470 kts 73°
2026-04-28 01:18 47.12322 -55.45608 34506 ft 467 kts 73°
2026-04-28 01:18 47.13335 -55.41089 33971 ft 464 kts 73°
2026-04-28 01:18 47.14338 -55.36608 33468 ft 460 kts 73°
2026-04-28 01:19 47.15330 -55.32163 32996 ft 456 kts 73°
2026-04-28 01:19 47.16315 -55.27743 32524 ft 453 kts 73°
2026-04-28 01:19 47.17289 -55.23362 32053 ft 450 kts 72°
2026-04-28 01:19 47.18256 -55.19003 31587 ft 447 kts 72°
2026-04-28 01:20 47.19214 -55.14675 31137 ft 444 kts 72°
2026-04-28 01:20 47.20152 -55.10433 30725 ft 440 kts 72°
2026-04-28 01:20 47.21092 -55.06169 30264 ft 437 kts 72°
2026-04-28 01:20 47.22022 -55.01944 29772 ft 433 kts 72°
2026-04-28 01:21 47.22945 -54.97741 29292 ft 429 kts 72°
2026-04-28 01:21 47.23857 -54.93582 28807 ft 426 kts 72°
2026-04-28 01:21 47.24762 -54.89443 28332 ft 423 kts 72°
2026-04-28 01:21 47.25660 -54.85334 27876 ft 420 kts 72°
2026-04-28 01:22 47.26547 -54.81260 27440 ft 417 kts 72°
2026-04-28 01:22 47.27428 -54.77209 27000 ft 414 kts 72°
2026-04-28 01:22 47.28301 -54.73189 26575 ft 411 kts 72°
2026-04-28 01:22 47.29166 -54.69196 26159 ft 408 kts 72°
2026-04-28 01:23 47.30022 -54.65234 25780 ft 404 kts 72°
2026-04-28 01:23 47.30871 -54.61303 25385 ft 401 kts 72°
2026-04-28 01:23 47.31711 -54.57400 24989 ft 399 kts 72°
2026-04-28 01:23 47.32548 -54.53510 24588 ft 397 kts 72°
2026-04-28 01:24 47.33377 -54.49645 24202 ft 394 kts 72°
2026-04-28 01:24 47.34198 -54.45810 23790 ft 392 kts 72°
2026-04-28 01:24 47.35014 -54.41994 23362 ft 389 kts 72°
2026-04-28 01:24 47.35823 -54.38205 22946 ft 385 kts 72°
2026-04-28 01:25 47.36622 -54.34451 22528 ft 382 kts 72°
2026-04-28 01:25 47.37416 -54.30719 22110 ft 380 kts 72°
2026-04-28 01:25 47.38202 -54.27016 21695 ft 377 kts 72°
2026-04-28 01:25 47.38980 -54.23339 21297 ft 374 kts 72°
2026-04-28 01:26 47.39753 -54.19692 20905 ft 371 kts 72°
2026-04-28 01:26 47.40509 -54.16113 20512 ft 368 kts 72°
2026-04-28 01:26 47.41267 -54.12516 20107 ft 366 kts 72°
2026-04-28 01:26 47.41918 -54.08899 19700 ft 364 kts 77°
2026-04-28 01:27 47.42350 -54.05233 19301 ft 362 kts 81°
2026-04-28 01:27 47.42708 -54.01517 18906 ft 359 kts 81°
2026-04-28 01:27 47.43046 -53.97871 18482 ft 357 kts 81°
2026-04-28 01:27 47.43390 -53.94266 18045 ft 354 kts 81°
2026-04-28 01:28 47.43743 -53.90684 17622 ft 351 kts 81°
2026-04-28 01:28 47.44102 -53.87131 17200 ft 348 kts 80°
2026-04-28 01:28 47.44463 -53.83616 16779 ft 345 kts 80°
2026-04-28 01:28 47.44825 -53.80122 16350 ft 343 kts 80°
2026-04-28 01:29 47.45185 -53.76655 15960 ft 340 kts 80°
2026-04-28 01:29 47.45543 -53.73216 15557 ft 338 kts 80°
2026-04-28 01:29 47.45898 -53.69798 15159 ft 335 kts 79°
2026-04-28 01:29 47.46245 -53.66452 14769 ft 333 kts 79°
2026-04-28 01:30 47.46593 -53.63084 14375 ft 330 kts 79°
2026-04-28 01:30 47.46937 -53.59747 13952 ft 328 kts 79°
2026-04-28 01:30 47.47278 -53.56428 13531 ft 325 kts 79°
2026-04-28 01:30 47.47615 -53.53142 13107 ft 322 kts 79°
2026-04-28 01:31 47.47948 -53.49882 12691 ft 319 kts 79°
2026-04-28 01:31 47.48277 -53.46651 12290 ft 317 kts 79°
2026-04-28 01:31 47.48602 -53.43453 11882 ft 308 kts 79°
2026-04-28 01:31 47.48906 -53.40426 11369 ft 289 kts 79°
2026-04-28 01:32 47.49195 -53.37546 10738 ft 278 kts 78°
2026-04-28 01:32 47.49477 -53.34755 10002 ft 272 kts 78°
2026-04-28 01:32 47.49751 -53.32030 9448 ft 259 kts 78°
2026-04-28 01:32 47.50013 -53.29422 9178 ft 256 kts 78°
2026-04-28 01:33 47.50278 -53.26794 8907 ft 261 kts 78°
2026-04-28 01:33 47.50550 -53.24102 8631 ft 268 kts 78°
2026-04-28 01:33 47.50824 -53.21360 8331 ft 271 kts 78°
2026-04-28 01:33 47.51094 -53.18626 8040 ft 266 kts 78°
2026-04-28 01:34 47.51360 -53.15943 7746 ft 261 kts 78°
2026-04-28 01:34 47.51619 -53.13314 7462 ft 256 kts 78°
2026-04-28 01:34 47.51874 -53.10732 7186 ft 251 kts 78°
2026-04-28 01:34 47.52125 -53.08192 6928 ft 250 kts 78°
2026-04-28 01:35 47.52378 -53.05628 6655 ft 255 kts 78°
2026-04-28 01:35 47.52635 -53.03009 6365 ft 259 kts 78°
2026-04-28 01:35 47.52886 -53.00372 6071 ft 257 kts 79°
2026-04-28 01:35 47.53034 -52.97758 5784 ft 252 kts 82°
2026-04-28 01:36 47.53147 -52.95206 5518 ft 246 kts 82°
2026-04-28 01:36 47.53262 -52.92709 5244 ft 240 kts 82°
2026-04-28 01:36 47.53377 -52.90270 5101 ft 235 kts 81°
2026-04-28 01:36 47.53489 -52.87865 4986 ft 234 kts 84°
2026-04-28 01:37 47.53207 -52.85475 4700 ft 238 kts 109°
2026-04-28 01:37 47.52573 -52.83278 4465 ft 228 kts 108°
2026-04-28 01:37 47.52030 -52.81160 4266 ft 218 kts 107°
2026-04-28 01:37 47.51509 -52.79089 3980 ft 207 kts 106°
2026-04-28 01:38 47.51022 -52.77150 3708 ft 195 kts 106°
2026-04-28 01:38 47.50567 -52.75341 3479 ft 184 kts 106°
2026-04-28 01:38 47.50250 -52.73550 3238 ft 172 kts 91°
2026-04-28 01:38 47.50274 -52.71857 3031 ft 157 kts 77°
2026-04-28 01:39 47.50557 -52.70414 2846 ft 144 kts 63°
2026-04-28 01:39 47.51039 -52.69167 2670 ft 133 kts 49°
2026-04-28 01:39 47.51644 -52.68196 2550 ft 127 kts 39°
2026-04-28 01:39 47.52122 -52.67660 2429 ft 128 kts 31°
2026-04-28 01:40 47.53182 -52.66932 2215 ft 128 kts 17°
2026-04-28 01:40 47.54052 -52.66688 2041 ft 127 kts
2026-04-28 01:40 47.54937 -52.66687 1865 ft 125 kts 355°
2026-04-28 01:40 47.55780 -52.67013 1729 ft 128 kts 342°
2026-04-28 01:41 47.56586 -52.67595 1551 ft 131 kts 330°
2026-04-28 01:41 47.57320 -52.68413 1400 ft 132 kts 323°
2026-04-28 01:41 47.58018 -52.69310 1223 ft 132 kts 323°
2026-04-28 01:41 47.58700 -52.70187 1037 ft 129 kts 322°
2026-04-28 01:42 47.59388 -52.71069 889 ft 132 kts 323°
2026-04-28 01:42 47.60076 -52.71951 706 ft 130 kts 323°
2026-04-28 01:42 47.60765 -52.72840 565 ft 132 kts 323°
2026-04-28 01:42 47.61456 -52.73737 432 ft 132 kts 322°
2026-04-28 01:43 47.62057 -52.74505 451 ft 85 kts 320°
2026-04-28 01:43 47.62337 -52.74858 455 ft 33 kts 319°
2026-04-28 01:43 47.62446 -52.74959 450 ft 2 kts 325°
2026-04-28 01:43 47.62445 -52.74976 449 ft 2 kts 261°
2026-04-28 01:44 47.62436 -52.74985 449 ft 2 kts 203°
2026-04-28 01:44 47.62424 -52.74977 450 ft 2 kts 149°
2026-04-28 01:44 47.62393 -52.74936 449 ft 14 kts 137°
2026-04-28 01:44 47.62307 -52.74823 456 ft 17 kts 139°
2026-04-28 01:45 47.62218 -52.74709 455 ft 17 kts 139°
2026-04-28 01:45 47.62128 -52.74594 456 ft 18 kts 139°
2026-04-28 01:45 47.62024 -52.74459 450 ft 22 kts 139°
2026-04-28 01:45 47.61902 -52.74301 427 ft 25 kts 139°
2026-04-28 01:46 47.61765 -52.74126 425 ft 25 kts 139°
2026-04-28 01:46 47.61727 -52.74085 426 ft 7 kts 155°
2026-04-28 01:46 47.61673 -52.74095 427 ft 9 kts 216°
2026-04-28 01:46 47.61631 -52.74162 431 ft 9 kts 227°
2026-04-28 01:47 47.61590 -52.74229 450 ft 9 kts 227°
2026-04-28 01:47 47.61549 -52.74308 451 ft 10 kts 241°
2026-04-28 01:47 47.61516 -52.74397 453 ft 10 kts 240°
2026-04-28 01:47 47.61476 -52.74492 453 ft 12 kts 239°
2026-04-28 01:48 47.61432 -52.74599 453 ft 13 kts 238°
2026-04-28 01:48 47.61394 -52.74656 453 ft 6 kts 176°
2026-04-28 01:48 47.61369 -52.74631 453 ft 3 kts 155°
2026-04-28 01:48 47.61367 -52.74630 453 ft 0 kts 154°